SVA327 OERK-HESH

Flight info

Callsign SVA327
Flight time N/A
Altitude 36000
Route IVONU2D IVONU M321 HLF DCT SH725 DCT SH761 DCT CF04L DCT FF04L DCT
Aircraft A320/M-SDE3FGHIRWY/LB1

Departure

Time 2026-04-29 19:19
Airport King Khalid International Airport (OERK)

Arrival

Time N/A
Airport Sharm El Sheikh International Airport (HESH)
Time Latitude Longitude Altitude Speed Heading
2026-04-29 19:08 24.94422 46.71473 2049 ft 0 kts 60°
2026-04-29 19:12 24.94419 46.71468 2049 ft 2 kts 60°
2026-04-29 19:12 24.94413 46.71457 2053 ft 2 kts 60°
2026-04-29 19:13 24.94402 46.71435 2078 ft 2 kts 60°
2026-04-29 19:13 24.94393 46.71419 2076 ft 3 kts 69°
2026-04-29 19:13 24.94389 46.71400 2076 ft 3 kts 93°
2026-04-29 19:13 24.94392 46.71381 2076 ft 3 kts 114°
2026-04-29 19:14 24.94402 46.71365 2082 ft 3 kts 151°
2026-04-29 19:14 24.94404 46.71363 2081 ft 0 kts 152°
2026-04-29 19:14 24.94391 46.71371 2076 ft 3 kts 152°
2026-04-29 19:15 24.94373 46.71382 2080 ft 2 kts 151°
2026-04-29 19:15 24.94354 46.71394 2073 ft 7 kts 150°
2026-04-29 19:15 24.94305 46.71425 2076 ft 7 kts 150°
2026-04-29 19:15 24.94265 46.71451 2076 ft 6 kts 150°
2026-04-29 19:16 24.94230 46.71473 2076 ft 9 kts 148°
2026-04-29 19:16 24.94205 46.71528 2076 ft 7 kts 91°
2026-04-29 19:16 24.94224 46.71574 2077 ft 9 kts 61°
2026-04-29 19:16 24.94252 46.71628 2076 ft 8 kts 60°
2026-04-29 19:17 24.94290 46.71702 2076 ft 13 kts 59°
2026-04-29 19:17 24.94338 46.71791 2077 ft 14 kts 59°
2026-04-29 19:17 24.94391 46.71892 2072 ft 16 kts 59°
2026-04-29 19:17 24.94449 46.72002 2071 ft 15 kts 60°
2026-04-29 19:18 24.94504 46.72107 2071 ft 13 kts 60°
2026-04-29 19:18 24.94531 46.72156 2066 ft 9 kts 52°
2026-04-29 19:18 24.94594 46.72157 2070 ft 6 kts 330°
2026-04-29 19:18 24.94680 46.72102 2070 ft 41 kts 330°
2026-04-29 19:19 24.95140 46.71813 2068 ft 110 kts 330°
2026-04-29 19:19 24.95973 46.71287 2064 ft 164 kts 330°
2026-04-29 19:19 24.97044 46.70608 2437 ft 178 kts 331°
2026-04-29 19:19 24.98136 46.69968 3045 ft 177 kts 339°
2026-04-29 19:20 24.99285 46.69483 3636 ft 177 kts 343°
2026-04-29 19:20 25.00484 46.69019 3994 ft 193 kts 343°
2026-04-29 19:20 25.01826 46.68506 4225 ft 216 kts 343°
2026-04-29 19:20 25.03317 46.67931 4475 ft 238 kts 342°
2026-04-29 19:21 25.04960 46.67290 4744 ft 263 kts 341°
2026-04-29 19:21 25.06756 46.66583 5181 ft 282 kts 340°
2026-04-29 19:21 25.08426 46.65488 5882 ft 287 kts 311°
2026-04-29 19:21 25.09354 46.63574 6671 ft 285 kts 278°
2026-04-29 19:22 25.09381 46.61411 7508 ft 282 kts 260°
2026-04-29 19:22 25.08981 46.59307 8384 ft 280 kts 254°
2026-04-29 19:22 25.08448 46.57229 8841 ft 281 kts 252°
2026-04-29 19:22 25.07932 46.55147 8987 ft 280 kts 258°
2026-04-29 19:23 25.07682 46.53022 9024 ft 280 kts 264°
2026-04-29 19:23 25.07556 46.50880 9024 ft 280 kts 266°
2026-04-29 19:23 25.07492 46.48743 9021 ft 279 kts 267°
2026-04-29 19:23 25.07456 46.46597 9022 ft 280 kts 268°
2026-04-29 19:24 25.07424 46.44449 9021 ft 280 kts 268°
2026-04-29 19:24 25.07391 46.42306 9017 ft 280 kts 268°
2026-04-29 19:24 25.07355 46.40151 9014 ft 280 kts 267°
2026-04-29 19:24 25.07314 46.38031 9018 ft 281 kts 267°
2026-04-29 19:25 25.07269 46.35862 9631 ft 284 kts 267°
2026-04-29 19:25 25.07222 46.33681 10388 ft 290 kts 267°
2026-04-29 19:25 25.07170 46.31366 10603 ft 314 kts 267°
2026-04-29 19:25 25.07113 46.28872 10774 ft 337 kts 267°
2026-04-29 19:26 25.07055 46.26233 11173 ft 349 kts 267°
2026-04-29 19:26 25.06997 46.23545 11855 ft 352 kts 266°
2026-04-29 19:26 25.06937 46.20850 12650 ft 352 kts 266°
2026-04-29 19:26 25.06878 46.18153 13441 ft 352 kts 266°
2026-04-29 19:27 25.06816 46.15455 14171 ft 352 kts 266°
2026-04-29 19:27 25.06753 46.12754 14809 ft 355 kts 266°
2026-04-29 19:27 25.06690 46.10058 15422 ft 357 kts 266°
2026-04-29 19:27 25.06626 46.07304 16032 ft 360 kts 266°
2026-04-29 19:28 25.06564 46.04536 16633 ft 363 kts 266°
2026-04-29 19:28 25.06500 46.01735 17233 ft 366 kts 265°
2026-04-29 19:28 25.06434 45.98920 17832 ft 370 kts 265°
2026-04-29 19:28 25.06364 45.96071 18403 ft 372 kts 266°
2026-04-29 19:29 25.06291 45.93200 18881 ft 376 kts 265°
2026-04-29 19:29 25.06216 45.90312 19351 ft 379 kts 266°
2026-04-29 19:29 25.06142 45.87390 19830 ft 382 kts 266°
2026-04-29 19:29 25.06069 45.84484 20299 ft 385 kts 266°
2026-04-29 19:30 25.05997 45.81487 20759 ft 388 kts 266°
2026-04-29 19:30 25.05926 45.78538 21193 ft 391 kts 266°
2026-04-29 19:30 25.05851 45.75537 21620 ft 394 kts 266°
2026-04-29 19:30 25.05770 45.72505 22043 ft 396 kts 266°
2026-04-29 19:31 25.05686 45.69453 22467 ft 399 kts 267°
2026-04-29 19:31 25.05831 45.66392 22859 ft 404 kts 276°
2026-04-29 19:31 25.06342 45.63331 23243 ft 407 kts 278°
2026-04-29 19:31 25.06874 45.60255 23607 ft 409 kts 278°
2026-04-29 19:32 25.07403 45.57172 23923 ft 411 kts 278°
2026-04-29 19:32 25.07933 45.54067 24253 ft 412 kts 278°
2026-04-29 19:32 25.08462 45.50953 24579 ft 413 kts 277°
2026-04-29 19:32 25.08983 45.47883 24894 ft 414 kts 277°
2026-04-29 19:33 25.09509 45.44752 25207 ft 415 kts 277°
2026-04-29 19:33 25.10035 45.41624 25509 ft 416 kts 277°
2026-04-29 19:33 25.10564 45.38476 25795 ft 417 kts 277°
2026-04-29 19:33 25.11095 45.35320 26083 ft 418 kts 277°
2026-04-29 19:34 25.11627 45.32167 26360 ft 419 kts 276°
2026-04-29 19:34 25.12163 45.28996 26626 ft 421 kts 276°
2026-04-29 19:34 25.12697 45.25826 26880 ft 422 kts 276°
2026-04-29 19:34 25.13234 45.22636 27124 ft 423 kts 276°
2026-04-29 19:35 25.13765 45.19481 27355 ft 424 kts 276°
2026-04-29 19:35 25.14308 45.16243 27577 ft 425 kts 276°
2026-04-29 19:35 25.14838 45.13071 27785 ft 426 kts 276°
2026-04-29 19:35 25.15374 45.09848 27985 ft 427 kts 276°
2026-04-29 19:36 25.15907 45.06633 28213 ft 427 kts 275°
2026-04-29 19:36 25.16442 45.03413 28489 ft 425 kts 275°
2026-04-29 19:36 25.16975 45.00214 28771 ft 424 kts 275°
2026-04-29 19:36 25.17509 44.97014 29040 ft 423 kts 275°
2026-04-29 19:37 25.18041 44.93822 29313 ft 422 kts 275°
2026-04-29 19:37 25.19094 44.87476 29908 ft 419 kts 275°
2026-04-29 19:37 25.19611 44.84356 30172 ft 418 kts 275°
2026-04-29 19:38 25.20130 44.81212 30407 ft 417 kts 275°
2026-04-29 19:38 25.20648 44.78065 30643 ft 416 kts 275°
2026-04-29 19:38 25.21163 44.74934 30874 ft 415 kts 275°
2026-04-29 19:38 25.21679 44.71798 31108 ft 414 kts 275°
2026-04-29 19:39 25.22194 44.68667 31344 ft 414 kts 275°
2026-04-29 19:39 25.22704 44.65552 31585 ft 413 kts 275°
2026-04-29 19:39 25.23213 44.62432 31826 ft 412 kts 275°
2026-04-29 19:39 25.23716 44.59318 32069 ft 411 kts 275°
2026-04-29 19:40 25.24215 44.56220 32304 ft 410 kts 275°
2026-04-29 19:40 25.24712 44.53158 32534 ft 410 kts 275°
2026-04-29 19:40 25.25224 44.50020 32780 ft 409 kts 275°
2026-04-29 19:40 25.25749 44.46985 33029 ft 409 kts 276°
2026-04-29 19:41 25.26326 44.43909 33275 ft 408 kts 276°
2026-04-29 19:41 25.26924 44.40853 33520 ft 408 kts 277°
2026-04-29 19:41 25.27531 44.37795 33775 ft 407 kts 277°
2026-04-29 19:41 25.28132 44.34743 34029 ft 405 kts 276°
2026-04-29 19:42 25.28720 44.31706 34239 ft 405 kts 276°
2026-04-29 19:42 25.29872 44.25624 34628 ft 404 kts 276°
2026-04-29 19:42 25.30445 44.22579 34809 ft 404 kts 276°
2026-04-29 19:43 25.31017 44.19534 34994 ft 404 kts 276°
2026-04-29 19:43 25.31585 44.16499 35185 ft 404 kts 276°
2026-04-29 19:43 25.32148 44.13496 35360 ft 404 kts 276°
2026-04-29 19:43 25.32722 44.10454 35540 ft 404 kts 276°
2026-04-29 19:44 25.33296 44.07423 35713 ft 404 kts 276°
2026-04-29 19:44 25.33868 44.04382 35887 ft 403 kts 276°
2026-04-29 19:44 25.34435 44.01346 35966 ft 405 kts 276°
2026-04-29 19:45 25.35572 43.95224 35986 ft 406 kts 276°
2026-04-29 19:45 25.36711 43.89108 35984 ft 406 kts 276°
2026-04-29 19:46 25.37659 43.84021 35981 ft 406 kts 276°
2026-04-29 19:46 25.38986 43.76921 35982 ft 406 kts 276°
2026-04-29 19:47 25.40126 43.70796 35984 ft 406 kts 276°
2026-04-29 19:47 25.41062 43.65716 35984 ft 406 kts 276°
2026-04-29 19:48 25.42189 43.59585 35988 ft 406 kts 276°
2026-04-29 19:48 25.43317 43.53464 35990 ft 406 kts 276°
2026-04-29 19:49 25.44439 43.47339 35989 ft 406 kts 275°
2026-04-29 19:49 25.45561 43.41215 35989 ft 406 kts 276°
2026-04-29 19:50 25.46681 43.35094 35986 ft 406 kts 276°
2026-04-29 19:50 25.47792 43.29013 35987 ft 406 kts 276°
2026-04-29 19:51 25.48905 43.22891 35985 ft 406 kts 276°
2026-04-29 19:51 25.50016 43.16759 35991 ft 406 kts 276°
2026-04-29 19:52 25.51125 43.10640 35988 ft 406 kts 276°
2026-04-29 19:52 25.52227 43.04522 35990 ft 405 kts 276°
2026-04-29 19:53 25.53321 42.98406 35987 ft 405 kts 276°
2026-04-29 19:53 25.54416 42.92323 35985 ft 405 kts 276°
2026-04-29 19:54 25.56058 42.83167 35982 ft 404 kts 276°
2026-04-29 19:54 25.57151 42.77073 35983 ft 403 kts 276°
2026-04-29 19:55 25.58234 42.70982 35983 ft 403 kts 276°
2026-04-29 19:55 25.59321 42.64891 35984 ft 403 kts 276°
2026-04-29 19:56 25.60406 42.58792 35983 ft 403 kts 276°
2026-04-29 19:56 25.61467 42.52747 35979 ft 402 kts 276°
2026-04-29 19:57 25.62538 42.46667 35969 ft 402 kts 276°
2026-04-29 19:57 25.63611 42.40590 35975 ft 402 kts 276°
2026-04-29 19:58 25.64685 42.34505 35969 ft 402 kts 276°
2026-04-29 19:58 25.65749 42.28431 35970 ft 402 kts 276°
2026-04-29 19:59 25.67093 42.22403 35977 ft 405 kts 281°
2026-04-29 19:59 25.68689 42.16460 35965 ft 405 kts 281°
2026-04-29 20:00 25.70310 42.10469 35970 ft 405 kts 281°
2026-04-29 20:00 25.71928 42.04490 35974 ft 405 kts 281°
2026-04-29 20:01 25.73542 41.98513 35980 ft 405 kts 281°
2026-04-29 20:01 25.75141 41.92535 35982 ft 404 kts 280°
2026-04-29 20:02 25.76733 41.86550 35983 ft 404 kts 280°
2026-04-29 20:02 25.78054 41.81595 35982 ft 403 kts 280°
2026-04-29 20:03 25.79919 41.74622 35987 ft 403 kts 280°
2026-04-29 20:03 25.81493 41.68706 35988 ft 402 kts 281°
2026-04-29 20:04 25.83074 41.62744 35991 ft 402 kts 280°
2026-04-29 20:04 25.84646 41.56797 35993 ft 401 kts 280°
2026-04-29 20:05 25.86217 41.50857 35994 ft 401 kts 280°
2026-04-29 20:05 25.87781 41.44921 35990 ft 400 kts 280°
2026-04-29 20:06 25.89338 41.39021 35994 ft 400 kts 280°
2026-04-29 20:06 25.90902 41.33098 35988 ft 400 kts 280°
2026-04-29 20:07 25.92462 41.27180 35992 ft 399 kts 280°
2026-04-29 20:07 25.94014 41.21266 35994 ft 399 kts 280°
2026-04-29 20:08 25.95301 41.16351 35996 ft 398 kts 280°
2026-04-29 20:08 25.97099 41.09444 35997 ft 398 kts 280°
2026-04-29 20:09 25.98631 41.03585 35995 ft 397 kts 280°
2026-04-29 20:09 26.00171 40.97693 35995 ft 397 kts 280°
2026-04-29 20:10 26.01705 40.91792 36001 ft 397 kts 280°
2026-04-29 20:10 26.03229 40.85904 35998 ft 396 kts 280°
2026-04-29 20:11 26.04750 40.80020 36000 ft 396 kts 280°
2026-04-29 20:11 26.06266 40.74139 36005 ft 396 kts 280°
2026-04-29 20:12 26.07780 40.68293 36004 ft 395 kts 280°
2026-04-29 20:12 26.09300 40.62422 36005 ft 395 kts 280°
2026-04-29 20:13 26.10809 40.56555 36006 ft 394 kts 280°
2026-04-29 20:13 26.12312 40.50687 36005 ft 394 kts 280°
2026-04-29 20:14 26.13817 40.44814 36008 ft 394 kts 280°
2026-04-29 20:14 26.15317 40.38953 36012 ft 394 kts 280°
2026-04-29 20:15 26.16801 40.33133 36016 ft 393 kts 280°
2026-04-29 20:15 26.18291 40.27278 36017 ft 393 kts 280°
2026-04-29 20:16 26.19784 40.21415 36021 ft 393 kts 280°
2026-04-29 20:16 26.21276 40.15565 36020 ft 393 kts 280°
2026-04-29 20:17 26.22753 40.09714 36029 ft 393 kts 280°
2026-04-29 20:17 26.24225 40.03863 36030 ft 392 kts 280°
2026-04-29 20:18 26.25702 39.98009 36036 ft 392 kts 280°
2026-04-29 20:18 26.27175 39.92169 36030 ft 391 kts 280°
2026-04-29 20:19 26.28631 39.86372 36027 ft 391 kts 280°
2026-04-29 20:19 26.30097 39.80538 36030 ft 391 kts 280°
2026-04-29 20:20 26.31560 39.74697 36033 ft 391 kts 280°
2026-04-29 20:20 26.33012 39.68868 36026 ft 390 kts 280°
2026-04-29 20:21 26.34471 39.63045 36021 ft 390 kts 280°
2026-04-29 20:21 26.35922 39.57223 36022 ft 390 kts 280°
2026-04-29 20:22 26.37370 39.51393 36016 ft 390 kts 280°
2026-04-29 20:22 26.38809 39.45573 36015 ft 389 kts 280°
2026-04-29 20:23 26.40248 39.39756 36014 ft 389 kts 279°
2026-04-29 20:23 26.41674 39.33979 36015 ft 389 kts 280°
2026-04-29 20:24 26.43112 39.28153 36014 ft 389 kts 280°
2026-04-29 20:24 26.44586 39.22345 36015 ft 390 kts 281°
2026-04-29 20:25 26.46143 39.16553 36014 ft 390 kts 281°
2026-04-29 20:25 26.47704 39.10761 36017 ft 390 kts 281°
2026-04-29 20:26 26.49247 39.04954 36019 ft 390 kts 281°
2026-04-29 20:26 26.50763 38.99190 36016 ft 390 kts 281°
2026-04-29 20:27 26.52042 38.94323 36017 ft 390 kts 281°
2026-04-29 20:27 26.53815 38.87580 36011 ft 390 kts 281°
2026-04-29 20:28 26.55336 38.81760 36006 ft 390 kts 281°
2026-04-29 20:28 26.56857 38.75949 36013 ft 390 kts 281°
2026-04-29 20:29 26.58376 38.70134 36004 ft 390 kts 281°
2026-04-29 20:29 26.59891 38.64317 36006 ft 390 kts 281°
2026-04-29 20:30 26.61393 38.58527 36002 ft 390 kts 281°
2026-04-29 20:30 26.62906 38.52707 35998 ft 390 kts 281°
2026-04-29 20:31 26.64416 38.46885 35998 ft 390 kts 281°
2026-04-29 20:31 26.65924 38.41063 35994 ft 390 kts 281°
2026-04-29 20:32 26.67434 38.35230 35992 ft 390 kts 281°
2026-04-29 20:32 26.68683 38.30382 35987 ft 390 kts 281°
2026-04-29 20:33 26.70436 38.23570 35985 ft 391 kts 281°
2026-04-29 20:33 26.71937 38.17734 35982 ft 391 kts 281°
2026-04-29 20:34 26.73430 38.11924 35983 ft 391 kts 281°
2026-04-29 20:34 26.74926 38.06078 35982 ft 391 kts 281°
2026-04-29 20:35 26.76416 38.00227 35983 ft 391 kts 281°
2026-04-29 20:35 26.77907 37.94372 35986 ft 392 kts 281°
2026-04-29 20:36 26.79398 37.88502 35987 ft 392 kts 281°
2026-04-29 20:36 26.80889 37.82639 35992 ft 392 kts 281°
2026-04-29 20:37 26.82383 37.76772 35997 ft 392 kts 281°
2026-04-29 20:37 26.83859 37.70939 36008 ft 392 kts 281°
2026-04-29 20:38 26.85340 37.65053 36014 ft 392 kts 281°
2026-04-29 20:38 26.86821 37.59171 36014 ft 393 kts 281°
2026-04-29 20:39 26.88303 37.53283 36018 ft 393 kts 281°
2026-04-29 20:39 26.89786 37.47394 36022 ft 393 kts 281°
2026-04-29 20:40 26.91255 37.41530 36032 ft 393 kts 281°
2026-04-29 20:40 26.92732 37.35634 36033 ft 393 kts 281°
2026-04-29 20:41 26.94207 37.29733 36022 ft 393 kts 281°
2026-04-29 20:41 26.95677 37.23836 36019 ft 393 kts 281°
2026-04-29 20:42 26.97146 37.17927 36017 ft 393 kts 281°
2026-04-29 20:42 26.98618 37.12027 36017 ft 393 kts 282°
2026-04-29 20:43 27.00081 37.06118 36011 ft 394 kts 281°
2026-04-29 20:43 27.01530 37.00245 36004 ft 393 kts 281°
2026-04-29 20:44 27.02986 36.94316 35998 ft 394 kts 281°
2026-04-29 20:44 27.04436 36.88390 35998 ft 394 kts 281°
2026-04-29 20:45 27.05892 36.82474 35993 ft 394 kts 282°
2026-04-29 20:45 27.07350 36.76546 35988 ft 395 kts 282°
2026-04-29 20:46 27.08805 36.70604 35979 ft 394 kts 282°
2026-04-29 20:46 27.10255 36.64668 35972 ft 395 kts 282°
2026-04-29 20:47 27.11700 36.58764 35969 ft 395 kts 282°
2026-04-29 20:47 27.12909 36.53785 35967 ft 395 kts 282°
2026-04-29 20:48 27.14585 36.46875 35965 ft 395 kts 282°
2026-04-29 20:48 27.16041 36.40889 35960 ft 395 kts 282°
2026-04-29 20:49 27.17476 36.34986 35960 ft 395 kts 282°
2026-04-29 20:49 27.18916 36.29031 35955 ft 395 kts 282°
2026-04-29 20:50 27.20345 36.23079 35954 ft 395 kts 282°
2026-04-29 20:50 27.21786 36.17075 35953 ft 395 kts 282°
2026-04-29 20:51 27.23219 36.11122 35956 ft 395 kts 282°
2026-04-29 20:51 27.24645 36.05160 35950 ft 395 kts 282°
2026-04-29 20:52 27.26068 35.99190 35945 ft 396 kts 282°
2026-04-29 20:52 27.27487 35.93215 35949 ft 396 kts 282°
2026-04-29 20:53 27.28914 35.87238 35944 ft 396 kts 282°
2026-04-29 20:53 27.30342 35.81260 35946 ft 396 kts 282°
2026-04-29 20:54 27.32462 35.72315 35713 ft 397 kts 282°
2026-04-29 20:54 27.33172 35.69318 35475 ft 397 kts 282°
2026-04-29 20:55 27.33879 35.66321 35386 ft 396 kts 282°
2026-04-29 20:55 27.35295 35.60311 35407 ft 398 kts 282°
2026-04-29 20:56 27.36714 35.54293 35406 ft 398 kts 282°
2026-04-29 20:56 27.37422 35.51283 34808 ft 400 kts 282°
2026-04-29 20:56 27.37891 35.49276 34156 ft 403 kts 282°
2026-04-29 20:56 27.38606 35.46217 33228 ft 404 kts 283°
2026-04-29 20:57 27.39322 35.43163 32364 ft 404 kts 283°
2026-04-29 20:57 27.40038 35.40107 31452 ft 405 kts 283°
2026-04-29 20:57 27.40759 35.37033 30551 ft 406 kts 283°
2026-04-29 20:57 27.41497 35.33881 29501 ft 408 kts 284°
2026-04-29 20:58 27.42219 35.30787 28423 ft 409 kts 284°
2026-04-29 20:58 27.42942 35.27682 27379 ft 410 kts 284°
2026-04-29 20:58 27.43667 35.24572 26308 ft 411 kts 284°
2026-04-29 20:58 27.44392 35.21449 25257 ft 412 kts 285°
2026-04-29 20:59 27.45106 35.18367 24261 ft 412 kts 285°
2026-04-29 20:59 27.45828 35.15249 23235 ft 412 kts 285°
2026-04-29 20:59 27.46554 35.12121 22093 ft 414 kts 285°
2026-04-29 20:59 27.47282 35.08994 21205 ft 411 kts 285°
2026-04-29 21:00 27.48001 35.05896 20408 ft 407 kts 285°
2026-04-29 21:00 27.48715 35.02821 19613 ft 405 kts 285°
2026-04-29 21:00 27.49421 34.99759 18830 ft 403 kts 284°
2026-04-29 21:00 27.50124 34.96708 18046 ft 402 kts 284°
2026-04-29 21:01 27.50826 34.93667 17240 ft 400 kts 284°
2026-04-29 21:01 27.51523 34.90652 16516 ft 397 kts 285°
2026-04-29 21:01 27.52212 34.87652 15801 ft 394 kts 284°
2026-04-29 21:01 27.52895 34.84669 15105 ft 392 kts 285°
2026-04-29 21:02 27.53575 34.81701 14440 ft 390 kts 285°
2026-04-29 21:02 27.54251 34.78745 13776 ft 388 kts 285°
2026-04-29 21:02 27.54919 34.75817 13081 ft 385 kts 285°
2026-04-29 21:02 27.55580 34.72910 12453 ft 380 kts 285°
2026-04-29 21:03 27.56250 34.70057 11787 ft 376 kts 287°